Location: Palomar Mountain Lodge
(33.3110°N, 116.8495°W)
Time: 17:13:57
(UTC-07:00)

GPS 2-04 Rocket1 - Pass Details

Date: 12 July 2018
Orbit: 421 x 559 km, 35.6° (Epoch: 16 July)

Event Time Altitude Azimuth Distance (km) Brightness Sun altitude
Rises 21:35:14 0° 282° (WNW) 2,473 7.2 -17.4°
Reaches altitude 10° 21:37:25 10° 275° (W) 1,622 6.0 -17.8°
Maximum altitude 21:40:58 43° 203° (SSW) 685 3.1 -18.3°
Enters shadow 21:41:29 40° 179° (S) 721 3.0 -18.4°
